GW1938 Weather Reports


time (UTC)temp
F
wind
direction
speed
knots
gust
knots
rain 1hr
in
rain 24hr
in
rain mn
in
humidity
%
barometer
mb
20260507093744 57 247 15.6 28.7 0.00 0.00 0.00 37 1015.8
20260507093242 57 247 15.6 27.8 0.00 0.00 0.00 39 1015.9
20260507092741 57 248 17.4 30.4 0.00 0.00 0.00 38 1015.7
20260507092239 57 247 15.6 26.9 0.00 0.00 0.00 43 1015.6
20260507091737 57 249 14.8 28.7 0.00 0.00 0.00 44 1015.5
20260507091236 57 248 16.5 27.8 0.00 0.00 0.00 38 1015.5
20260507090733 57 249 14.8 26.9 0.00 0.00 0.00 35 1015.6
20260507090231 58 246 13.9 25.2 0.00 0.00 0.00 37 1015.4
20260507085730 58 250 15.6 27.8 0.00 0.00 0.00 37 1015.3
20260507085227 58 246 13.0 21.7 0.00 0.00 0.00 37 1015.5
20260507084223 58 246 13.9 24.3 0.00 0.00 0.00 35 1015.1
20260507083721 58 244 13.0 24.3 0.00 0.00 0.00 38 1015.2
20260507083219 58 239 13.0 23.5 0.00 0.00 0.00 35 1015.0
20260507081709 58 236 13.0 22.6 0.00 0.00 0.00 32 1014.6
20260507081208 59 245 13.0 20.9 0.00 0.00 0.00 34 1014.6
20260507080707 59 244 13.9 27.8 0.00 0.00 0.00 33 1014.4
20260507080206 59 244 13.9 26.1 0.00 0.00 0.00 35 1014.2
20260507075704 59 246 14.8 27.8 0.00 0.00 0.00 31 1014.2
20260507075203 59 249 14.8 22.6 0.00 0.00 0.00 32 1014.2
20260507074702 59 243 11.3 23.5 0.00 0.00 0.00 31 1014.0
20260507074200 59 242 10.4 19.1 0.00 0.00 0.00 30 1014.0
20260507073659 59 240 9.6 16.5 0.00 0.00 0.00 36 1014.0
20260507073158 59 244 13.0 23.5 0.00 0.00 0.00 28 1013.9
20260507072657 59 242 12.2 19.1 0.00 0.00 0.00 28 1013.9
20260507071149 59 233 10.4 16.5 0.00 0.00 0.00 24 1013.6
20260507070144 60 234 11.3 22.6 0.00 0.00 0.00 24 1013.5
20260507065139 61 237 14.8 26.1 0.00 0.00 0.00 22 1013.2
20260507064638 61 234 14.8 28.7 0.00 0.00 0.00 21 1012.9
20260507064137 61 239 20.0 27.8 0.00 0.00 0.00 20 1012.8
20260507063636 61 239 16.5 27.8 0.00 0.00 0.00 20 1012.8
20260507063133 62 238 14.8 24.3 0.00 0.00 0.00 22 1012.7
20260507062632 62 234 14.8 25.2 0.00 0.00 0.00 20 1012.7
20260507062129 62 241 16.5 26.1 0.00 0.00 0.00 20 1012.6
20260507061628 62 238 10.4 20.9 0.00 0.00 0.00 26 1012.7
20260507061126 62 241 13.9 24.3 0.00 0.00 0.00 23 1012.4
20260507060624 62 238 17.4 29.5 0.00 0.00 0.00 23 1012.4
20260507060123 63 238 16.5 29.5 0.00 0.00 0.00 20 1012.1
20260507055621 63 243 18.2 31.3 0.00 0.00 0.00 25 1012.2
20260507055120 63 244 19.1 30.4 0.00 0.00 0.00 25 1012.1
20260507054618 63 242 14.8 24.3 0.00 0.00 0.00 33 1012.0
20260507054117 63 241 15.6 26.1 0.00 0.00 0.00 30 1011.9
20260507053615 63 240 13.9 22.6 0.00 0.00 0.00 30 1012.0
20260507052609 63 249 13.9 23.5 0.00 0.00 0.00 29 1011.7
20260507052108 64 249 14.8 25.2 0.00 0.00 0.00 28 1011.6
20260507051103 62 252 14.8 23.5 0.00 0.00 0.00 33 1011.5
20260507050058 61 236 11.3 20.0 0.00 0.00 0.00 40 1011.5
20260507045555 60 233 13.9 22.6 0.00 0.00 0.00 42 1011.6
20260507045053 61 234 17.4 28.7 0.00 0.00 0.00 41 1011.4
20260507044552 62 277 13.0 24.3 0.00 0.00 0.00 63 1011.3
20260507043547 64 297 12.2 21.7 0.00 0.00 0.00 51 1010.8
20260507043045 65 303 13.0 20.9 0.00 0.00 0.00 47 1010.8
20260507042542 67 297 10.4 22.6 0.00 0.00 0.00 47 1010.7
20260507041538 67 313 13.9 22.6 0.00 0.00 0.00 47 1010.7
20260507040515 65 307 10.4 21.7 0.00 0.00 0.00 55 1010.8
20260507040012 66 310 10.4 22.6 0.00 0.00 0.00 50 1010.8
20260507035510 65 295 10.4 19.1 0.00 0.00 0.00 50 1010.7
20260507035007 67 310 10.4 20.0 0.00 0.00 0.00 51 1010.8
20260507034001 65 295 11.3 20.0 0.00 0.00 0.00 51 1010.9
20260507033459 64 273 10.4 18.2 0.00 0.00 0.00 57 1010.9
20260507032958 64 259 12.2 20.9 0.00 0.00 0.00 56 1011.0
20260507032456 64 287 11.3 20.9 0.00 0.00 0.00 51 1011.0
20260507031955 65 296 10.4 18.2 0.00 0.00 0.00 51 1011.0
20260507031453 64 290 10.4 20.0 0.00 0.00 0.00 50 1011.0
20260507030952 65 287 10.4 19.1 0.00 0.00 0.00 51 1011.1
20260507030450 65 283 9.6 18.2 0.00 0.00 0.00 54 1011.2
20260507025949 66 292 8.7 20.0 0.00 0.00 0.00 51 1011.1
20260507025447 65 285 12.2 21.7 0.00 0.00 0.00 53 1011.1
20260507024946 66 296 8.7 18.2 0.00 0.00 0.00 53 1011.0
20260507024445 68 300 12.2 21.7 0.00 0.00 0.00 50 1011.0
20260507023943 67 299 12.2 23.5 0.00 0.00 0.00 52 1010.9
20260507022937 68 302 10.4 20.0 0.00 0.00 0.00 48 1011.2
20260507022435 68 304 9.6 18.2 0.00 0.00 0.00 49 1011.3
20260507021934 67 288 10.4 20.9 0.00 0.00 0.00 54 1011.4
20260507021433 65 263 13.0 23.5 0.00 0.00 0.00 51 1011.3
20260507020931 66 272 12.2 21.7 0.00 0.00 0.00 51 1011.3
20260507020429 66 270 12.2 20.9 0.00 0.00 0.00 54 1011.4
20260507015928 65 272 13.0 22.6 0.00 0.00 0.00 52 1011.6
20260507015426 65 263 14.8 27.8 0.00 0.00 0.00 51 1011.7
20260507014925 65 280 13.0 21.7 0.00 0.00 0.00 49 1011.5
20260507014423 65 272 11.3 21.7 0.00 0.00 0.00 50 1011.6
20260507013922 65 260 13.9 22.6 0.00 0.00 0.00 50 1011.8
20260507013419 65 268 11.3 19.1 0.00 0.00 0.00 54 1011.8
20260507012918 65 262 12.2 20.9 0.00 0.00 0.00 51 1011.8
20260507012416 65 258 13.9 25.2 0.00 0.00 0.00 49 1012.0
20260507011914 65 260 13.9 23.5 0.00 0.00 0.00 53 1012.1
20260507011413 65 261 11.3 22.6 0.00 0.00 0.00 55 1012.2
20260507010912 65 267 12.2 21.7 0.00 0.00 0.00 53 1012.2
20260507010411 64 267 10.4 19.1 0.00 0.00 0.00 52 1012.4
20260507005908 65 259 11.3 21.7 0.00 0.00 0.00 53 1012.5
20260507005406 64 259 12.2 20.0 0.00 0.00 0.00 51 1012.5
20260507004402 64 267 12.2 22.6 0.00 0.00 0.00 51 1012.5
20260507003356 64 259 14.8 26.9 0.00 0.00 0.00 52 1012.5
20260507001847 63 279 11.3 20.0 0.00 0.00 0.00 54 1012.4
20260507001346 63 268 13.9 26.1 0.00 0.00 0.00 54 1012.3
20260507000844 64 257 13.0 21.7 0.00 0.00 0.00 54 1012.3
20260507000343 63 260 13.9 26.1 0.00 0.00 0.00 60 1012.3
20260506235841 63 259 15.6 25.2 0.00 0.00 0.00 55 1012.1
20260506235338 63 264 13.9 23.5 0.00 0.00 0.00 57 1012.4
20260506234837 62 260 14.8 28.7 0.00 0.00 0.00 57 1012.3
20260506234336 62 256 13.9 25.2 0.00 0.00 0.00 56 1012.3
20260506233331 62 263 13.9 25.2 0.00 0.00 0.00 54 1012.3
20260506232830 62 271 10.4 22.6 0.00 0.00 0.00 63 1012.4
20260506232326 62 271 9.6 18.2 0.00 0.00 0.00 61 1012.4
20260506231825 62 265 11.3 21.7 0.00 0.00 0.00 64 1012.5
20260506231324 62 272 12.2 20.9 0.00 0.00 0.00 61 1012.4
20260506230822 62 273 11.3 23.5 0.00 0.00 0.00 62 1012.4
20260506225809 62 286 10.4 19.1 0.00 0.00 0.00 67 1012.7
20260506225307 61 270 13.9 22.6 0.00 0.00 0.00 66 1012.6
20260506224805 61 271 13.9 26.1 0.00 0.00 0.00 65 1012.6
20260506223800 61 263 15.6 24.3 0.00 0.00 0.00 67 1012.6
20260506223300 60 254 20.0 33.0 0.00 0.00 0.00 65 1012.6
20260506222255 60 253 16.5 31.3 0.00 0.00 0.00 65 1012.6
20260506221752 60 251 16.5 27.8 0.00 0.00 0.00 67 1012.6
20260506220747 60 248 14.8 23.5 0.00 0.00 0.00 68 1012.5
20260506215742 59 240 11.3 18.2 0.00 0.00 0.00 71 1012.5
20260506215241 59 238 9.6 15.6 0.00 0.00 0.00 70 1012.4
20260506213732 61 244 13.0 21.7 0.00 0.00 0.00 67 1012.2
20260506213231 61 252 13.0 21.7 0.00 0.00 0.00 67 1012.1
20260506212730 62 258 10.4 20.0 0.00 0.00 0.00 69 1012.1
20260506212227 62 267 8.7 19.1 0.00 0.00 0.00 69 1011.9
20260506211725 62 268 12.2 21.7 0.00 0.00 0.00 70 1011.9
20260506211223 62 277 7.8 16.5 0.00 0.00 0.00 69 1011.7
20260506210722 62 287 8.7 17.4 0.00 0.00 0.00 71 1011.6
20260506210220 62 282 9.6 20.0 0.00 0.00 0.00 67 1011.7
20260506204713 62 284 9.6 18.2 0.00 0.00 0.00 67 1011.4
20260506204211 62 287 9.6 19.1 0.00 0.00 0.00 66 1011.4
20260506203709 62 293 7.8 19.1 0.00 0.00 0.00 70 1011.5
20260506203208 62 293 7.0 13.9 0.00 0.00 0.00 69 1011.5
20260506202706 62 277 7.8 15.6 0.00 0.00 0.00 74 1011.4
20260506202204 61 270 7.8 13.0 0.00 0.00 0.00 73 1011.3
20260506201702 61 269 7.8 14.8 0.00 0.00 0.00 73 1011.4
20260506201201 61 269 7.0 13.0 0.00 0.00 0.00 73 1011.4
20260506200659 61 267 7.8 15.6 0.00 0.00 0.00 72 1011.4
20260506195644 62 271 8.7 15.6 0.00 0.00 0.00 71 1011.5
20260506195142 62 270 7.8 15.6 0.00 0.00 0.00 72 1011.4
20260506193129 62 294 6.1 12.2 0.00 0.00 0.00 76 1011.5
20260506192628 62 274 7.0 12.2 0.00 0.00 0.00 74 1011.4
20260506192126 62 270 7.8 14.8 0.00 0.00 0.00 75 1011.3
20260506191623 62 268 7.0 13.0 0.00 0.00 0.00 76 1011.4
20260506191122 62 273 7.0 13.9 0.00 0.00 0.00 76 1011.5
20260506190621 62 284 6.1 13.9 0.00 0.00 0.00 79 1011.4
20260506190120 62 275 7.0 13.0 0.00 0.00 0.00 79 1011.5
20260506185618 62 277 7.8 13.0 0.00 0.00 0.00 79 1011.5
20260506184613 61 272 8.7 13.0 0.00 0.00 0.00 81 1011.4
20260506182602 62 275 7.8 14.8 0.00 0.00 0.00 78 1011.5
20260506182101 62 272 8.7 14.8 0.00 0.00 0.00 80 1011.4
20260506181600 62 270 7.0 13.9 0.00 0.00 0.00 83 1011.3
20260506181057 62 260 7.8 13.9 0.00 0.00 0.00 85 1011.4
20260506180555 62 263 7.8 13.0 0.00 0.00 0.00 85 1011.4
20260506180053 62 269 8.7 13.9 0.00 0.00 0.00 86 1011.3
20260506175049 62 273 8.7 13.9 0.00 0.00 0.00 87 1011.3
20260506174547 62 276 6.1 13.0 0.00 0.00 0.00 86 1011.3
20260506174045 63 275 7.8 12.2 0.00 0.00 0.00 85 1011.3
20260506172538 63 275 7.8 15.6 0.00 0.00 0.00 85 1011.3
20260506172036 63 296 5.2 10.4 0.00 0.00 0.00 88 1011.3
20260506170528 63 289 5.2 9.6 0.00 0.00 0.00 91 1011.4
20260506170027 62 271 7.0 12.2 0.00 0.00 0.00 91 1011.4
20260506165526 62 269 7.0 11.3 0.00 0.00 0.00 92 1011.4
20260506165025 62 266 7.0 11.3 0.00 0.00 0.00 93 1011.4
20260506164524 62 272 7.0 11.3 0.00 0.00 0.00 93 1011.5
20260506163519 62 263 7.8 13.0 0.00 0.00 0.00 93 1011.5
20260506163017 62 269 6.1 10.4 0.00 0.00 0.00 95 1011.6
20260506162515 62 270 6.1 12.2 0.00 0.00 0.00 95 1011.7
20260506162013 62 270 7.8 12.2 0.00 0.00 0.00 94 1011.7
20260506161512 63 293 7.8 12.2 0.00 0.00 0.00 93 1011.7
20260506160506 63 288 6.1 10.4 0.00 0.00 0.00 91 1011.8
20260506155500 62 283 5.2 7.8 0.00 0.00 0.00 90 1011.7
20260506154959 62 281 5.2 8.7 0.00 0.00 0.00 91 1011.7
20260506154457 63 278 5.2 7.8 0.00 0.00 0.00 91 1011.8
20260506153956 63 302 4.3 7.8 0.00 0.00 0.00 91 1011.8
20260506153454 63 286 4.3 7.0 0.00 0.00 0.00 91 1011.8
20260506152953 63 300 3.5 6.1 0.00 0.00 0.00 92 1011.8
20260506151947 63 305 4.3 7.0 0.00 0.00 0.00 93 1011.9
20260506151446 63 305 5.2 7.8 0.00 0.00 0.00 93 1012.0
20260506150945 63 303 5.2 7.0 0.00 0.00 0.00 93 1012.1
20260506145941 63 300 3.5 5.2 0.00 0.00 0.00 94 1012.2
20260506145439 63 313 3.5 6.1 0.00 0.00 0.00 94 1012.1
20260506144435 63 327 3.5 4.3 0.00 0.00 0.00 94 1012.2
20260506142926 63 322 3.5 6.1 0.00 0.00 0.00 95 1012.3
20260506141418 63 307 3.5 4.3 0.00 0.00 0.00 95 1012.5
20260506140917 63 324 2.6 3.5 0.00 0.00 0.00 94 1012.5
20260506140415 63 348 2.6 3.5 0.00 0.00 0.00 94 1012.6
20260506135411 63 353 2.6 4.3 0.00 0.00 0.00 93 1012.6
20260506134910 63 0 2.6 3.5 0.00 0.00 0.00 93 1012.7
20260506134408 63 8 2.6 3.5 0.00 0.00 0.00 92 1012.7
20260506133906 63 8 2.6 4.3 0.00 0.00 0.00 92 1012.7
20260506133405 63 6 1.7 4.3 0.00 0.00 0.00 93 1012.8
20260506132400 63 1 1.7 2.6 0.00 0.00 0.00 92 1013.0
20260506130348 64 39 2.6 3.5 0.00 0.00 0.00 92 1013.0
20260506125846 63 25 1.7 2.6 0.00 0.00 0.00 92 1013.2
20260506124840 63 74 0.9 1.7 0.00 0.00 0.00 92 1013.3
20260506124339 63 80 0.9 1.7 0.00 0.00 0.00 93 1013.3
20260506123836 63 55 1.7 2.6 0.00 0.00 0.00 93 1013.3
20260506123334 63 12 1.7 2.6 0.00 0.00 0.00 94 1013.4
20260506122833 62 353 2.6 3.5 0.00 0.00 0.00 93 1013.5
20260506122330 63 349 2.6 3.5 0.00 0.00 0.00 93 1013.6
20260506121829 63 353 1.7 3.5 0.00 0.00 0.00 93 1013.6
20260506120823 63 354 2.6 4.3 0.00 0.00 0.00 93 1013.7
20260506120321 63 5 3.5 5.2 0.00 0.00 0.00 93 1013.7
20260506115820 64 3 3.5 6.1 0.00 0.00 0.00 93 1013.8
20260506114815 64 352 3.5 4.3 0.00 0.00 0.00 93 1014.0
20260506114314 64 355 2.6 3.5 0.00 0.00 0.00 92 1014.0
20260506113813 64 353 2.6 4.3 0.00 0.00 0.00 92 1014.1
20260506113311 64 351 2.6 3.5 0.00 0.00 0.00 92 1014.1
20260506112306 64 359 2.6 3.5 0.00 0.00 0.00 91 1014.2
20260506111805 64 7 3.5 5.2 0.00 0.00 0.00 90 1014.2
20260506111303 65 10 3.5 5.2 0.00 0.00 0.00 90 1014.3
20260506110802 65 1 4.3 7.0 0.00 0.00 0.00 90 1014.3
20260506110300 65 16 4.3 6.1 0.00 0.00 0.00 90 1014.3
20260506105759 65 11 3.5 5.2 0.00 0.00 0.00 89 1014.4
20260506105258 65 2 3.5 5.2 0.00 0.00 0.00 89 1014.5
20260506104757 65 1 3.5 5.2 0.00 0.00 0.00 88 1014.4
20260506104256 66 5 4.3 6.1 0.00 0.00 0.00 88 1014.5
20260506102244 66 0 4.3 6.1 0.00 0.00 0.00 89 1014.7
20260506101742 66 359 3.5 6.1 0.00 0.00 0.00 89 1014.7
20260506101240 66 4 3.5 7.0 0.00 0.00 0.00 89 1014.6
20260506100738 66 4 3.5 6.1 0.00 0.00 0.00 89 1014.6
20260506100237 66 9 3.5 5.2 0.00 0.00 0.00 89 1014.6
20260506095231 66 9 3.5 4.3 0.00 0.00 0.00 88 1014.6
20260506094730 66 11 3.5 5.2 0.00 0.00 0.00 88 1014.5
20260506094229 66 9 3.5 6.1 0.00 0.00 0.00 87 1014.5